Weather History for Tupelo, MS

Change the Weather History Date:

Tuesday, November 15, 2011

  Actual Average Record
Temperature  
Mean Temperature 74 °F 53 °F  
Max Temperature 82 °F 64 °F 84 °F (1955)
Min Temperature 65 °F 42 °F 17 °F (1969)
Degree Days  
Heating Degree Days 0 12  
Month to date heating degree days 132 151  
Since 1 July heating degree days 321 299  
Cooling Degree Days 9 0  
Month to date cooling degree days 18 9  
Year to date cooling degree days 2277 2042  
Growing Degree Days 24 (Base 50)    
Moisture  
Dew Point 63 °F    
Average Humidity 70    
Maximum Humidity 93    
Minimum Humidity 46    
Precipitation  
Precipitation 0.00 in 0.15 in 1.00 in (1958)
Month to date precipitation 0.73 1.96  
Year to date precipitation 41.48 45.99  
Snow  
Snow 0.00 in 0.00 in T in (1995)
Month to date snowfall 0.0 0.0  
Since 1 July snowfall 0.0 0.0  
Since 1 September snowfall 0.0 0.0  
Snow Depth -    
Sea Level Pressure  
Sea Level Pressure 29.85 in    
Wind  
Wind Speed 10 mph (SSW)    
Max Wind Speed 21 mph    
Max Gust Speed 26 mph    
Visibility 9 miles    
Events      
T = Trace of Precipitation, MM = Missing Value Source: NWS Daily Summary

Daily Weather History Graph

Daily Weather History Graph

Search for Another Location

Airport:

Trip Planner

Search our weather history database for the weather conditions in past years. The results will help you decide how hot, cold, wet, or windy it might be!

Date:

Astronomy

Nov. 15, 2011 Rise Set
Actual Time 6:27 AM CST 4:51 PM CST
Civil Twilight 6:01 AM CST 5:17 PM CST
Nautical Twilight 5:30 AM CST 5:48 PM CST
Astronomical Twilight 5:01 AM CST 6:17 PM CST
Moon 9:00 PM CST (11/15) 10:25 AM CST (11/15)
Length of Visible Light 11h 16m
Length of Day
10h 23m
Waning Gibbous, 79% of the Moon is Illuminated
Nov 15
Waning Gibbous
Nov 18
Last Quarter
Nov 25
New
Dec 2
First Quarter
Dec 10
Full

Hourly Weather History & Observations

Time (CST) Temp. Heat Index Dew Point Humidity Pressure Visibility Wind Dir Wind Speed Gust Speed Precip Events Conditions
12:00 AM 66.2 °F - 64.4 °F 94% 29.91 in 10.0 mi SSW 9.2 mph - N/A   Overcast
12:53 AM 68.0 °F - 64.9 °F 90% 29.89 in 9.0 mi SSW 10.4 mph - N/A   Mostly Cloudy
1:23 AM 68.0 °F - 64.4 °F 88% 29.90 in 9.0 mi SW 9.2 mph - N/A   Overcast
1:53 AM 68.0 °F - 64.9 °F 90% 29.88 in 9.0 mi SW 11.5 mph - N/A   Overcast
2:01 AM 68.0 °F - 64.4 °F 88% 29.89 in 9.0 mi SW 9.2 mph - N/A   Mostly Cloudy
2:25 AM 66.2 °F - 64.4 °F 94% 29.89 in 9.0 mi SW 9.2 mph - N/A   Scattered Clouds
2:53 AM 66.9 °F - 64.9 °F 93% 29.88 in 8.0 mi SW 9.2 mph - N/A   Scattered Clouds
3:24 AM 66.2 °F - 64.4 °F 94% 29.88 in 8.0 mi SW 8.1 mph - N/A   Scattered Clouds
3:30 AM 66.2 °F - 64.4 °F 94% 29.88 in 8.0 mi SW 6.9 mph - N/A   Mostly Cloudy
3:53 AM 66.9 °F - 64.9 °F 93% 29.87 in 8.0 mi SW 8.1 mph - N/A   Overcast
4:22 AM 66.2 °F - 64.4 °F 94% 29.88 in 7.0 mi SSW 6.9 mph - N/A   Overcast
4:53 AM 66.9 °F - 64.9 °F 93% 29.88 in 6.0 mi SW 5.8 mph - N/A   Overcast
5:53 AM 66.0 °F - 64.0 °F 93% 29.88 in 7.0 mi SSW 8.1 mph - N/A   Overcast
6:00 AM 66.2 °F - 64.4 °F 94% 29.89 in 7.0 mi SSW 6.9 mph - N/A   Overcast
6:53 AM 66.2 °F - 64.4 °F 94% 29.90 in 7.0 mi SSW 10.4 mph - N/A   Overcast
7:53 AM 68.0 °F - 64.0 °F 87% 29.89 in 9.0 mi SSW 12.7 mph - N/A   Overcast
8:26 AM 68.0 °F - 64.4 °F 88% 29.90 in 10.0 mi SSW 13.8 mph - N/A   Mostly Cloudy
8:53 AM 69.1 °F - 64.0 °F 84% 29.89 in 10.0 mi SSW 12.7 mph - N/A   Overcast
9:53 AM 73.9 °F - 64.0 °F 71% 29.88 in 10.0 mi SSW 18.4 mph 23.0 mph N/A   Mostly Cloudy
10:00 AM 75.2 °F - 64.4 °F 69% 29.89 in 10.0 mi SSW 15.0 mph 23.0 mph N/A   Scattered Clouds
10:35 AM 75.2 °F - 62.6 °F 65% 29.87 in 10.0 mi SW 16.1 mph 23.0 mph N/A   Mostly Cloudy
10:53 AM 77.0 °F - 63.0 °F 62% 29.86 in 10.0 mi SW 12.7 mph 21.9 mph N/A   Mostly Cloudy
11:23 AM 75.2 °F - 62.6 °F 65% 29.85 in 10.0 mi SSW 17.3 mph 25.3 mph N/A   Mostly Cloudy
11:39 AM 75.2 °F - 62.6 °F 65% 29.84 in 10.0 mi SW 10.4 mph 23.0 mph N/A   Mostly Cloudy
11:53 AM 77.0 °F - 63.0 °F 62% 29.83 in 10.0 mi SW 11.5 mph 20.7 mph N/A   Scattered Clouds
12:53 PM 78.1 °F - 61.0 °F 56% 29.80 in 10.0 mi SW 12.7 mph - N/A   Partly Cloudy
1:53 PM 82.0 °F 82.1 °F 59.0 °F 45% 29.79 in 10.0 mi WSW 8.1 mph 17.3 mph N/A   Partly Cloudy
2:53 PM 79.0 °F - 60.1 °F 52% 29.78 in 10.0 mi SW 13.8 mph 18.4 mph N/A   Scattered Clouds
3:53 PM 75.0 °F - 62.1 °F 64% 29.80 in 10.0 mi SSW 11.5 mph - N/A   Mostly Cloudy
4:53 PM 73.0 °F - 60.1 °F 64% 29.79 in 10.0 mi SSW 10.4 mph - N/A   Clear
5:53 PM 69.1 °F - 59.0 °F 70% 29.81 in 10.0 mi SSW 6.9 mph - N/A   Clear
6:53 PM 69.1 °F - 59.0 °F 70% 29.82 in 10.0 mi SSW 5.8 mph - N/A   Clear
7:53 PM 66.9 °F - 60.1 °F 79% 29.82 in 10.0 mi SSW 3.5 mph - N/A   Clear
8:53 PM 66.0 °F - 61.0 °F 84% 29.81 in 10.0 mi SSW 6.9 mph - N/A   Clear
9:53 PM 66.0 °F - 62.1 °F 87% 29.80 in 10.0 mi South 5.8 mph - N/A   Scattered Clouds
10:53 PM 66.0 °F - 63.0 °F 90% 29.81 in 10.0 mi SSW 9.2 mph - N/A   Partly Cloudy
11:07 PM 66.2 °F - 62.6 °F 88% 29.81 in 10.0 mi SSW 9.2 mph - N/A   Mostly Cloudy
11:17 PM 66.2 °F - 62.6 °F 88% 29.81 in 10.0 mi SSW 8.1 mph - N/A   Scattered Clouds
11:53 PM 66.9 °F - 64.0 °F 90% 29.79 in 10.0 mi SSW 10.4 mph - N/A   Partly Cloudy